Location: Doschendorf
(50.0069°N, 11.0602°E)
Time: 07:27:13
(UTC+00:00)

H-2A R/B - Pass Details

Date: 17 November 2019
Orbit: 500 x 543 km, 97.3° (Epoch: 11 December)

Event Time Altitude Azimuth Distance (km) Brightness Sun altitude
Rises 16:46:17 0° 171° (S) 2,668 6.4 -12.2°
Reaches altitude 10° 16:48:24 10° 173° (S) 1,776 5.5 -12.5°
Maximum altitude 16:52:14 70° 258° (WSW) 563 3.0 -13.1°
Drops below altitude 10° 16:56:02 10° 343° (NNW) 1,766 5.4 -13.7°
Sets 16:58:09 0° 346° (NNW) 2,652 6.3 -14.1°
